owner,sensor,date,latitude,longitude,air_pressure(mBar),qcFlag 
WAVCIS,ioos:station:WAVCIS:CSI09:1,2012-10-01T00:00:00Z,29.1015,-89.9782,1001.936,11111222 
WAVCIS,ioos:station:WAVCIS:CSI09:1,2012-10-01T01:00:00Z,29.1015,-89.9782,1002.082,11111222 
WAVCIS,ioos:station:WAVCIS:CSI09:1,2012-10-01T02:00:00Z,29.1015,-89.9782,1002.319,11111222 
WAVCIS,ioos:station:WAVCIS:CSI09:1,2012-10-01T03:00:00Z,29.1015,-89.9782,1002.363,11111222 
WAVCIS,ioos:station:WAVCIS:CSI09:1,2012-10-01T04:00:00Z,29.1015,-89.9782,1001.898,11111222 
WAVCIS,ioos:station:WAVCIS:CSI09:1,2012-10-01T05:00:00Z,29.1015,-89.9782,1001.609,11111222 
WAVCIS,ioos:station:WAVCIS:CSI09:1,2012-10-01T06:00:00Z,29.1015,-89.9782,1001.638,11111222 
WAVCIS,ioos:station:WAVCIS:CSI09:1,2012-10-01T07:00:00Z,29.1015,-89.9782,1001.484,11111222 
WAVCIS,ioos:station:WAVCIS:CSI09:1,2012-10-01T08:00:00Z,29.1015,-89.9782,1001.04,11111222 
WAVCIS,ioos:station:WAVCIS:CSI09:1,2012-10-01T09:00:00Z,29.1015,-89.9782,1001.084,11111222 
WAVCIS,ioos:station:WAVCIS:CSI09:1,2012-10-01T10:00:00Z,29.1015,-89.9782,1001.48,11111222 
WAVCIS,ioos:station:WAVCIS:CSI09:1,2012-10-01T11:00:00Z,29.1015,-89.9782,1001.878,11111222 
WAVCIS,ioos:station:WAVCIS:CSI09:1,2012-10-01T12:00:00Z,29.1015,-89.9782,1002.79,11111222 
WAVCIS,ioos:station:WAVCIS:CSI09:1,2012-10-01T13:00:00Z,29.1015,-89.9782,1003.166,11111222 
WAVCIS,ioos:station:WAVCIS:CSI09:1,2012-10-01T14:00:00Z,29.1015,-89.9782,1004.17,11111222 
WAVCIS,ioos:station:WAVCIS:CSI09:1,2012-10-01T15:00:00Z,29.1015,-89.9782,1004.811,11111222 
WAVCIS,ioos:station:WAVCIS:CSI09:1,2012-10-01T16:00:00Z,29.1015,-89.9782,1005.091,11111222 
WAVCIS,ioos:station:WAVCIS:CSI09:1,2012-10-01T17:00:00Z,29.1015,-89.9782,1004.862,11111222 
WAVCIS,ioos:station:WAVCIS:CSI09:1,2012-10-01T18:00:00Z,29.1015,-89.9782,1004.7,11111222 
WAVCIS,ioos:station:WAVCIS:CSI09:1,2012-10-01T19:00:00Z,29.1015,-89.9782,1004.151,11111222 
WAVCIS,ioos:station:WAVCIS:CSI09:1,2012-10-01T20:00:00Z,29.1015,-89.9782,1004.152,11111222 
WAVCIS,ioos:station:WAVCIS:CSI09:1,2012-10-01T21:00:00Z,29.1015,-89.9782,1004.18,11111222 
WAVCIS,ioos:station:WAVCIS:CSI09:1,2012-10-01T22:00:00Z,29.1015,-89.9782,1004.425,11111222 
WAVCIS,ioos:station:WAVCIS:CSI09:1,2012-10-01T23:00:00Z,29.1015,-89.9782,1005.18,11111222 
WAVCIS,ioos:station:WAVCIS:CSI09:1,2012-10-02T00:00:00Z,29.1015,-89.9782,1005.516,11111222 
WAVCIS,ioos:station:WAVCIS:CSI09:1,2012-10-02T01:00:00Z,29.1015,-89.9782,1006.249,11111222 
WAVCIS,ioos:station:WAVCIS:CSI09:1,2012-10-02T02:00:00Z,29.1015,-89.9782,1007.39,11111222 
WAVCIS,ioos:station:WAVCIS:CSI09:1,2012-10-02T03:00:00Z,29.1015,-89.9782,1008.16,11111222 
WAVCIS,ioos:station:WAVCIS:CSI09:1,2012-10-02T04:00:00Z,29.1015,-89.9782,1008.45,11111222 
WAVCIS,ioos:station:WAVCIS:CSI09:1,2012-10-02T05:00:00Z,29.1015,-89.9782,1008.28,11111222 
WAVCIS,ioos:station:WAVCIS:CSI09:1,2012-10-02T06:00:00Z,29.1015,-89.9782,1008.63,11111222 
WAVCIS,ioos:station:WAVCIS:CSI09:1,2012-10-02T07:00:00Z,29.1015,-89.9782,1008.75,11111222 
WAVCIS,ioos:station:WAVCIS:CSI09:1,2012-10-02T08:00:00Z,29.1015,-89.9782,1008.63,11111222 
WAVCIS,ioos:station:WAVCIS:CSI09:1,2012-10-02T09:00:00Z,29.1015,-89.9782,1008.63,11111222 
WAVCIS,ioos:station:WAVCIS:CSI09:1,2012-10-02T10:00:00Z,29.1015,-89.9782,1008.99,11111222 
WAVCIS,ioos:station:WAVCIS:CSI09:1,2012-10-02T11:00:00Z,29.1015,-89.9782,1009.32,11111222 
WAVCIS,ioos:station:WAVCIS:CSI09:1,2012-10-02T12:00:00Z,29.1015,-89.9782,1010.26,11111222 
WAVCIS,ioos:station:WAVCIS:CSI09:1,2012-10-02T13:00:00Z,29.1015,-89.9782,1010.75,11111222 
WAVCIS,ioos:station:WAVCIS:CSI09:1,2012-10-02T14:00:00Z,29.1015,-89.9782,1011.65,11111222 
WAVCIS,ioos:station:WAVCIS:CSI09:1,2012-10-02T15:00:00Z,29.1015,-89.9782,1012.61,11111222 
WAVCIS,ioos:station:WAVCIS:CSI09:1,2012-10-02T16:00:00Z,29.1015,-89.9782,1012.9,11111222 
WAVCIS,ioos:station:WAVCIS:CSI09:1,2012-10-02T17:00:00Z,29.1015,-89.9782,1013.04,11111222 
WAVCIS,ioos:station:WAVCIS:CSI09:1,2012-10-02T18:00:00Z,29.1015,-89.9782,1012.87,11111222 
WAVCIS,ioos:station:WAVCIS:CSI09:1,2012-10-02T19:00:00Z,29.1015,-89.9782,1012.41,11111222 
WAVCIS,ioos:station:WAVCIS:CSI09:1,2012-10-02T20:00:00Z,29.1015,-89.9782,1011.97,11111222 
WAVCIS,ioos:station:WAVCIS:CSI09:1,2012-10-02T21:00:00Z,29.1015,-89.9782,1011.99,11111222 
WAVCIS,ioos:station:WAVCIS:CSI09:1,2012-10-02T22:00:00Z,29.1015,-89.9782,1012.29,11111222 
WAVCIS,ioos:station:WAVCIS:CSI09:1,2012-10-02T23:00:00Z,29.1015,-89.9782,1012.2,11111222 
WAVCIS,ioos:station:WAVCIS:CSI09:1,2012-10-03T00:00:00Z,29.1015,-89.9782,1012.44,11111222 
WAVCIS,ioos:station:WAVCIS:CSI09:1,2012-10-03T01:00:00Z,29.1015,-89.9782,1012.89,11111222 
WAVCIS,ioos:station:WAVCIS:CSI09:1,2012-10-03T02:00:00Z,29.1015,-89.9782,1013.77,11111222 
WAVCIS,ioos:station:WAVCIS:CSI09:1,2012-10-03T03:00:00Z,29.1015,-89.9782,1014.59,11111222 
WAVCIS,ioos:station:WAVCIS:CSI09:1,2012-10-03T04:00:00Z,29.1015,-89.9782,1015.24,11111222 
WAVCIS,ioos:station:WAVCIS:CSI09:1,2012-10-03T05:00:00Z,29.1015,-89.9782,1015.17,11111222 
WAVCIS,ioos:station:WAVCIS:CSI09:1,2012-10-03T06:00:00Z,29.1015,-89.9782,1015.11,11111222 
WAVCIS,ioos:station:WAVCIS:CSI09:1,2012-10-03T07:00:00Z,29.1015,-89.9782,1015.11,11111222 
WAVCIS,ioos:station:WAVCIS:CSI09:1,2012-10-03T08:00:00Z,29.1015,-89.9782,1014.89,11111222 
WAVCIS,ioos:station:WAVCIS:CSI09:1,2012-10-03T09:00:00Z,29.1015,-89.9782,1014.69,11111222 
WAVCIS,ioos:station:WAVCIS:CSI09:1,2012-10-03T10:00:00Z,29.1015,-89.9782,1015.12,11111222 
WAVCIS,ioos:station:WAVCIS:CSI09:1,2012-10-03T11:00:00Z,29.1015,-89.9782,1015.18,11111222 
WAVCIS,ioos:station:WAVCIS:CSI09:1,2012-10-03T12:00:00Z,29.1015,-89.9782,1015.59,11111222 
WAVCIS,ioos:station:WAVCIS:CSI09:1,2012-10-03T13:00:00Z,29.1015,-89.9782,1016.09,11111222 
WAVCIS,ioos:station:WAVCIS:CSI09:1,2012-10-03T14:00:00Z,29.1015,-89.9782,1016.99,11111222 
WAVCIS,ioos:station:WAVCIS:CSI09:1,2012-10-03T15:00:00Z,29.1015,-89.9782,1017.62,11111222 
WAVCIS,ioos:station:WAVCIS:CSI09:1,2012-10-03T16:00:00Z,29.1015,-89.9782,1017.78,11111222 
WAVCIS,ioos:station:WAVCIS:CSI09:1,2012-10-03T17:00:00Z,29.1015,-89.9782,1017.85,11111222 
WAVCIS,ioos:station:WAVCIS:CSI09:1,2012-10-03T18:00:00Z,29.1015,-89.9782,1017.32,11111222 
WAVCIS,ioos:station:WAVCIS:CSI09:1,2012-10-03T19:00:00Z,29.1015,-89.9782,1017.13,11111222 
WAVCIS,ioos:station:WAVCIS:CSI09:1,2012-10-03T20:00:00Z,29.1015,-89.9782,1016.91,11111222 
WAVCIS,ioos:station:WAVCIS:CSI09:1,2012-10-03T21:00:00Z,29.1015,-89.9782,1017.09,11111222 
WAVCIS,ioos:station:WAVCIS:CSI09:1,2012-10-03T22:00:00Z,29.1015,-89.9782,1016.95,11111222 
WAVCIS,ioos:station:WAVCIS:CSI09:1,2012-10-03T23:00:00Z,29.1015,-89.9782,1017.33,11111222 
WAVCIS,ioos:station:WAVCIS:CSI09:1,2012-10-04T00:00:00Z,29.1015,-89.9782,1017.5,11111222 
WAVCIS,ioos:station:WAVCIS:CSI09:1,2012-10-04T01:00:00Z,29.1015,-89.9782,1017.83,11111222 
WAVCIS,ioos:station:WAVCIS:CSI09:1,2012-10-04T02:00:00Z,29.1015,-89.9782,1018.19,11111222 
WAVCIS,ioos:station:WAVCIS:CSI09:1,2012-10-04T03:00:00Z,29.1015,-89.9782,1018.77,11111222 
WAVCIS,ioos:station:WAVCIS:CSI09:1,2012-10-04T04:00:00Z,29.1015,-89.9782,1018.9,11111222 
WAVCIS,ioos:station:WAVCIS:CSI09:1,2012-10-04T05:00:00Z,29.1015,-89.9782,1019.04,11111222 
WAVCIS,ioos:station:WAVCIS:CSI09:1,2012-10-04T06:00:00Z,29.1015,-89.9782,1019.09,11111222 
WAVCIS,ioos:station:WAVCIS:CSI09:1,2012-10-04T07:00:00Z,29.1015,-89.9782,1019.19,11111222 
WAVCIS,ioos:station:WAVCIS:CSI09:1,2012-10-04T08:00:00Z,29.1015,-89.9782,1019.19,11111222 
WAVCIS,ioos:station:WAVCIS:CSI09:1,2012-10-04T09:00:00Z,29.1015,-89.9782,1019.19,11111222 
WAVCIS,ioos:station:WAVCIS:CSI09:1,2012-10-04T10:00:00Z,29.1015,-89.9782,1019.63,11111222 
WAVCIS,ioos:station:WAVCIS:CSI09:1,2012-10-04T11:00:00Z,29.1015,-89.9782,1020.05,11111222 
WAVCIS,ioos:station:WAVCIS:CSI09:1,2012-10-04T12:00:00Z,29.1015,-89.9782,1020.61,11111222 
WAVCIS,ioos:station:WAVCIS:CSI09:1,2012-10-04T13:00:00Z,29.1015,-89.9782,1021.15,11111222 
WAVCIS,ioos:station:WAVCIS:CSI09:1,2012-10-04T14:00:00Z,29.1015,-89.9782,1021.83,11111222 
WAVCIS,ioos:station:WAVCIS:CSI09:1,2012-10-04T15:00:00Z,29.1015,-89.9782,1021.89,11111222 
WAVCIS,ioos:station:WAVCIS:CSI09:1,2012-10-04T16:00:00Z,29.1015,-89.9782,1021.96,11111222 
WAVCIS,ioos:station:WAVCIS:CSI09:1,2012-10-04T17:00:00Z,29.1015,-89.9782,1021.87,11111222 
WAVCIS,ioos:station:WAVCIS:CSI09:1,2012-10-04T18:00:00Z,29.1015,-89.9782,1021.3,11111222 
WAVCIS,ioos:station:WAVCIS:CSI09:1,2012-10-04T19:00:00Z,29.1015,-89.9782,1020.9,11111222 
WAVCIS,ioos:station:WAVCIS:CSI09:1,2012-10-04T20:00:00Z,29.1015,-89.9782,1020.42,11111222 
WAVCIS,ioos:station:WAVCIS:CSI09:1,2012-10-04T21:00:00Z,29.1015,-89.9782,1020.27,11111222 
WAVCIS,ioos:station:WAVCIS:CSI09:1,2012-10-04T22:00:00Z,29.1015,-89.9782,1020.1,11111222 
WAVCIS,ioos:station:WAVCIS:CSI09:1,2012-10-04T23:00:00Z,29.1015,-89.9782,1020.1,11111222 
WAVCIS,ioos:station:WAVCIS:CSI09:1,2012-10-05T00:00:00Z,29.1015,-89.9782,1020.12,11111222 
WAVCIS,ioos:station:WAVCIS:CSI09:1,2012-10-05T01:00:00Z,29.1015,-89.9782,1020.17,11111222 
WAVCIS,ioos:station:WAVCIS:CSI09:1,2012-10-05T02:00:00Z,29.1015,-89.9782,1020.05,11111222 
WAVCIS,ioos:station:WAVCIS:CSI09:1,2012-10-05T03:00:00Z,29.1015,-89.9782,1020.6,11111222 
WAVCIS,ioos:station:WAVCIS:CSI09:1,2012-10-05T04:00:00Z,29.1015,-89.9782,1020.5,11111222 
WAVCIS,ioos:station:WAVCIS:CSI09:1,2012-10-05T05:00:00Z,29.1015,-89.9782,1020.22,11111222 
WAVCIS,ioos:station:WAVCIS:CSI09:1,2012-10-05T06:00:00Z,29.1015,-89.9782,1019.77,11111222 
WAVCIS,ioos:station:WAVCIS:CSI09:1,2012-10-05T07:00:00Z,29.1015,-89.9782,1019.76,11111222 
WAVCIS,ioos:station:WAVCIS:CSI09:1,2012-10-05T08:00:00Z,29.1015,-89.9782,1019.22,11111222 
WAVCIS,ioos:station:WAVCIS:CSI09:1,2012-10-05T09:00:00Z,29.1015,-89.9782,1018.74,11111222 
WAVCIS,ioos:station:WAVCIS:CSI09:1,2012-10-05T10:00:00Z,29.1015,-89.9782,1018.8,11111222 
WAVCIS,ioos:station:WAVCIS:CSI09:1,2012-10-05T11:00:00Z,29.1015,-89.9782,1019.2,11111222 
WAVCIS,ioos:station:WAVCIS:CSI09:1,2012-10-05T12:00:00Z,29.1015,-89.9782,1019.28,11111222 
WAVCIS,ioos:station:WAVCIS:CSI09:1,2012-10-05T13:00:00Z,29.1015,-89.9782,1019.48,11111222 
WAVCIS,ioos:station:WAVCIS:CSI09:1,2012-10-05T14:00:00Z,29.1015,-89.9782,1019.52,11111222 
WAVCIS,ioos:station:WAVCIS:CSI09:1,2012-10-05T15:00:00Z,29.1015,-89.9782,1019.66,11111222 
WAVCIS,ioos:station:WAVCIS:CSI09:1,2012-10-05T16:00:00Z,29.1015,-89.9782,1019.37,11111222 
WAVCIS,ioos:station:WAVCIS:CSI09:1,2012-10-05T17:00:00Z,29.1015,-89.9782,1019.28,11111222 
WAVCIS,ioos:station:WAVCIS:CSI09:1,2012-10-05T18:00:00Z,29.1015,-89.9782,1018.62,11111222 
WAVCIS,ioos:station:WAVCIS:CSI09:1,2012-10-05T19:00:00Z,29.1015,-89.9782,1017.75,11111222 
WAVCIS,ioos:station:WAVCIS:CSI09:1,2012-10-05T20:00:00Z,29.1015,-89.9782,1016.68,11111222 
WAVCIS,ioos:station:WAVCIS:CSI09:1,2012-10-05T21:00:00Z,29.1015,-89.9782,1015.93,11111222 
WAVCIS,ioos:station:WAVCIS:CSI09:1,2012-10-05T22:00:00Z,29.1015,-89.9782,1015.66,11111222 
WAVCIS,ioos:station:WAVCIS:CSI09:1,2012-10-05T23:00:00Z,29.1015,-89.9782,1015.78,11111222 
WAVCIS,ioos:station:WAVCIS:CSI09:1,2012-10-06T00:00:00Z,29.1015,-89.9782,1015.86,11111222 
WAVCIS,ioos:station:WAVCIS:CSI09:1,2012-10-06T01:00:00Z,29.1015,-89.9782,1015.93,11111222 
WAVCIS,ioos:station:WAVCIS:CSI09:1,2012-10-06T02:00:00Z,29.1015,-89.9782,1016.15,11111222 
WAVCIS,ioos:station:WAVCIS:CSI09:1,2012-10-06T03:00:00Z,29.1015,-89.9782,1016.18,11111222 
WAVCIS,ioos:station:WAVCIS:CSI09:1,2012-10-06T04:00:00Z,29.1015,-89.9782,1016.04,11111222 
WAVCIS,ioos:station:WAVCIS:CSI09:1,2012-10-06T05:00:00Z,29.1015,-89.9782,1015.93,11111222 
WAVCIS,ioos:station:WAVCIS:CSI09:1,2012-10-06T06:00:00Z,29.1015,-89.9782,1015.83,11111222 
WAVCIS,ioos:station:WAVCIS:CSI09:1,2012-10-06T07:00:00Z,29.1015,-89.9782,1015.85,11111222 
WAVCIS,ioos:station:WAVCIS:CSI09:1,2012-10-06T08:00:00Z,29.1015,-89.9782,1015.7,11111222 
WAVCIS,ioos:station:WAVCIS:CSI09:1,2012-10-06T09:00:00Z,29.1015,-89.9782,1015.27,11111222 
WAVCIS,ioos:station:WAVCIS:CSI09:1,2012-10-06T10:00:00Z,29.1015,-89.9782,1015.24,11111222 
WAVCIS,ioos:station:WAVCIS:CSI09:1,2012-10-06T11:00:00Z,29.1015,-89.9782,1015.43,11111222 
WAVCIS,ioos:station:WAVCIS:CSI09:1,2012-10-06T12:00:00Z,29.1015,-89.9782,1015.51,11111222 
WAVCIS,ioos:station:WAVCIS:CSI09:1,2012-10-06T13:00:00Z,29.1015,-89.9782,1015.76,11111222 
WAVCIS,ioos:station:WAVCIS:CSI09:1,2012-10-06T14:00:00Z,29.1015,-89.9782,1016.17,11111222 
WAVCIS,ioos:station:WAVCIS:CSI09:1,2012-10-06T15:00:00Z,29.1015,-89.9782,1016.39,11111222 
WAVCIS,ioos:station:WAVCIS:CSI09:1,2012-10-06T16:00:00Z,29.1015,-89.9782,1016.24,11111222 
WAVCIS,ioos:station:WAVCIS:CSI09:1,2012-10-06T17:00:00Z,29.1015,-89.9782,1016.07,11111222 
WAVCIS,ioos:station:WAVCIS:CSI09:1,2012-10-06T18:00:00Z,29.1015,-89.9782,1015.3,11111222 
WAVCIS,ioos:station:WAVCIS:CSI09:1,2012-10-06T19:00:00Z,29.1015,-89.9782,1014.38,11111222 
WAVCIS,ioos:station:WAVCIS:CSI09:1,2012-10-06T20:00:00Z,29.1015,-89.9782,1013.8,11111222 
WAVCIS,ioos:station:WAVCIS:CSI09:1,2012-10-06T21:00:00Z,29.1015,-89.9782,1013.66,11111222 
WAVCIS,ioos:station:WAVCIS:CSI09:1,2012-10-06T22:00:00Z,29.1015,-89.9782,1013.48,11111222 
WAVCIS,ioos:station:WAVCIS:CSI09:1,2012-10-06T23:00:00Z,29.1015,-89.9782,1013.66,11111222 
WAVCIS,ioos:station:WAVCIS:CSI09:1,2012-10-07T00:00:00Z,29.1015,-89.9782,1014.09,11111222 
WAVCIS,ioos:station:WAVCIS:CSI09:1,2012-10-07T01:00:00Z,29.1015,-89.9782,1014.3,11111222 
WAVCIS,ioos:station:WAVCIS:CSI09:1,2012-10-07T02:00:00Z,29.1015,-89.9782,1014.6,11111222 
WAVCIS,ioos:station:WAVCIS:CSI09:1,2012-10-07T03:00:00Z,29.1015,-89.9782,1014.88,11111222 
WAVCIS,ioos:station:WAVCIS:CSI09:1,2012-10-07T04:00:00Z,29.1015,-89.9782,1014.83,11111222 
WAVCIS,ioos:station:WAVCIS:CSI09:1,2012-10-07T05:00:00Z,29.1015,-89.9782,1015.08,11111222 
WAVCIS,ioos:station:WAVCIS:CSI09:1,2012-10-07T06:00:00Z,29.1015,-89.9782,1014.75,11111222 
WAVCIS,ioos:station:WAVCIS:CSI09:1,2012-10-07T07:00:00Z,29.1015,-89.9782,1014.65,11111222 
WAVCIS,ioos:station:WAVCIS:CSI09:1,2012-10-07T08:00:00Z,29.1015,-89.9782,1014.71,11111222 
WAVCIS,ioos:station:WAVCIS:CSI09:1,2012-10-07T09:00:00Z,29.1015,-89.9782,1014.48,11111222 
WAVCIS,ioos:station:WAVCIS:CSI09:1,2012-10-07T10:00:00Z,29.1015,-89.9782,1014.81,11111222 
WAVCIS,ioos:station:WAVCIS:CSI09:1,2012-10-07T11:00:00Z,29.1015,-89.9782,1015.39,11111222 
WAVCIS,ioos:station:WAVCIS:CSI09:1,2012-10-07T12:00:00Z,29.1015,-89.9782,1016.12,11111222 
WAVCIS,ioos:station:WAVCIS:CSI09:1,2012-10-07T13:00:00Z,29.1015,-89.9782,1016.77,11111222 
WAVCIS,ioos:station:WAVCIS:CSI09:1,2012-10-07T14:00:00Z,29.1015,-89.9782,1017.22,11111222 
WAVCIS,ioos:station:WAVCIS:CSI09:1,2012-10-07T15:00:00Z,29.1015,-89.9782,1017.51,11111222 
WAVCIS,ioos:station:WAVCIS:CSI09:1,2012-10-07T16:00:00Z,29.1015,-89.9782,1018.09,11111222 
WAVCIS,ioos:station:WAVCIS:CSI09:1,2012-10-07T17:00:00Z,29.1015,-89.9782,1017.57,11111222 
WAVCIS,ioos:station:WAVCIS:CSI09:1,2012-10-07T18:00:00Z,29.1015,-89.9782,1017.06,11111222 
WAVCIS,ioos:station:WAVCIS:CSI09:1,2012-10-07T19:00:00Z,29.1015,-89.9782,1015.97,11111222 
WAVCIS,ioos:station:WAVCIS:CSI09:1,2012-10-07T20:00:00Z,29.1015,-89.9782,1015.26,11111222 
WAVCIS,ioos:station:WAVCIS:CSI09:1,2012-10-07T21:00:00Z,29.1015,-89.9782,1014.98,11111222 
WAVCIS,ioos:station:WAVCIS:CSI09:1,2012-10-07T22:00:00Z,29.1015,-89.9782,1014.81,11111222 
WAVCIS,ioos:station:WAVCIS:CSI09:1,2012-10-07T23:00:00Z,29.1015,-89.9782,1015.29,11111222 
WAVCIS,ioos:station:WAVCIS:CSI09:1,2012-10-08T00:00:00Z,29.1015,-89.9782,1015.88,11111222 
WAVCIS,ioos:station:WAVCIS:CSI09:1,2012-10-08T01:00:00Z,29.1015,-89.9782,1016.62,11111222 
WAVCIS,ioos:station:WAVCIS:CSI09:1,2012-10-08T02:00:00Z,29.1015,-89.9782,1017.08,11111222 
WAVCIS,ioos:station:WAVCIS:CSI09:1,2012-10-08T03:00:00Z,29.1015,-89.9782,1016.88,11111222 
WAVCIS,ioos:station:WAVCIS:CSI09:1,2012-10-08T04:00:00Z,29.1015,-89.9782,1017.17,11111222 
WAVCIS,ioos:station:WAVCIS:CSI09:1,2012-10-08T05:00:00Z,29.1015,-89.9782,1016.75,11111222 
WAVCIS,ioos:station:WAVCIS:CSI09:1,2012-10-08T06:00:00Z,29.1015,-89.9782,1016.89,11111222 
WAVCIS,ioos:station:WAVCIS:CSI09:1,2012-10-08T07:00:00Z,29.1015,-89.9782,1016.44,11111222 
WAVCIS,ioos:station:WAVCIS:CSI09:1,2012-10-08T08:00:00Z,29.1015,-89.9782,1016.64,11111222 
WAVCIS,ioos:station:WAVCIS:CSI09:1,2012-10-08T09:00:00Z,29.1015,-89.9782,1016.51,11111222 
WAVCIS,ioos:station:WAVCIS:CSI09:1,2012-10-08T10:00:00Z,29.1015,-89.9782,1016.64,11111222 
WAVCIS,ioos:station:WAVCIS:CSI09:1,2012-10-08T11:00:00Z,29.1015,-89.9782,1016.66,11111222 
WAVCIS,ioos:station:WAVCIS:CSI09:1,2012-10-08T12:00:00Z,29.1015,-89.9782,1017.53,11111222 
WAVCIS,ioos:station:WAVCIS:CSI09:1,2012-10-08T13:00:00Z,29.1015,-89.9782,1017.95,11111222 
WAVCIS,ioos:station:WAVCIS:CSI09:1,2012-10-08T14:00:00Z,29.1015,-89.9782,1018.48,11111222 
WAVCIS,ioos:station:WAVCIS:CSI09:1,2012-10-08T15:00:00Z,29.1015,-89.9782,1019.19,11111222 
WAVCIS,ioos:station:WAVCIS:CSI09:1,2012-10-08T16:00:00Z,29.1015,-89.9782,1019.22,11111222 
WAVCIS,ioos:station:WAVCIS:CSI09:1,2012-10-08T17:00:00Z,29.1015,-89.9782,1018.79,11111222 
WAVCIS,ioos:station:WAVCIS:CSI09:1,2012-10-08T18:00:00Z,29.1015,-89.9782,1018.38,11111222 
WAVCIS,ioos:station:WAVCIS:CSI09:1,2012-10-08T19:00:00Z,29.1015,-89.9782,1017.55,11111222 
WAVCIS,ioos:station:WAVCIS:CSI09:1,2012-10-08T20:00:00Z,29.1015,-89.9782,1017.15,11111222 
WAVCIS,ioos:station:WAVCIS:CSI09:1,2012-10-08T21:00:00Z,29.1015,-89.9782,1016.85,11111222 
WAVCIS,ioos:station:WAVCIS:CSI09:1,2012-10-08T22:00:00Z,29.1015,-89.9782,1016.9,11111222 
WAVCIS,ioos:station:WAVCIS:CSI09:1,2012-10-08T23:00:00Z,29.1015,-89.9782,1016.87,11111222 
WAVCIS,ioos:station:WAVCIS:CSI09:1,2012-10-09T00:00:00Z,29.1015,-89.9782,1017.05,11111222 
WAVCIS,ioos:station:WAVCIS:CSI09:1,2012-10-09T01:00:00Z,29.1015,-89.9782,1017.55,11111222 
WAVCIS,ioos:station:WAVCIS:CSI09:1,2012-10-09T02:00:00Z,29.1015,-89.9782,1018.16,11111222 
WAVCIS,ioos:station:WAVCIS:CSI09:1,2012-10-09T03:00:00Z,29.1015,-89.9782,1018.39,11111222 
WAVCIS,ioos:station:WAVCIS:CSI09:1,2012-10-09T04:00:00Z,29.1015,-89.9782,1018.19,11111222 
WAVCIS,ioos:station:WAVCIS:CSI09:1,2012-10-09T05:00:00Z,29.1015,-89.9782,1018.22,11111222 
WAVCIS,ioos:station:WAVCIS:CSI09:1,2012-10-09T06:00:00Z,29.1015,-89.9782,1017.85,11111222 
WAVCIS,ioos:station:WAVCIS:CSI09:1,2012-10-09T07:00:00Z,29.1015,-89.9782,1017.62,11111222 
WAVCIS,ioos:station:WAVCIS:CSI09:1,2012-10-09T08:00:00Z,29.1015,-89.9782,1017.37,11111222 
WAVCIS,ioos:station:WAVCIS:CSI09:1,2012-10-09T09:00:00Z,29.1015,-89.9782,1017.21,11111222 
WAVCIS,ioos:station:WAVCIS:CSI09:1,2012-10-09T10:00:00Z,29.1015,-89.9782,1017.41,11111222 
WAVCIS,ioos:station:WAVCIS:CSI09:1,2012-10-09T11:00:00Z,29.1015,-89.9782,1017.74,11111222 
WAVCIS,ioos:station:WAVCIS:CSI09:1,2012-10-09T12:00:00Z,29.1015,-89.9782,1017.99,11111222 
WAVCIS,ioos:station:WAVCIS:CSI09:1,2012-10-09T13:00:00Z,29.1015,-89.9782,1018.35,11111222 
WAVCIS,ioos:station:WAVCIS:CSI09:1,2012-10-09T14:00:00Z,29.1015,-89.9782,1018.8,11111222 
WAVCIS,ioos:station:WAVCIS:CSI09:1,2012-10-09T15:00:00Z,29.1015,-89.9782,1019.16,11111222 
WAVCIS,ioos:station:WAVCIS:CSI09:1,2012-10-09T16:00:00Z,29.1015,-89.9782,1019.22,11111222 
WAVCIS,ioos:station:WAVCIS:CSI09:1,2012-10-09T17:00:00Z,29.1015,-89.9782,1018.91,11111222 
WAVCIS,ioos:station:WAVCIS:CSI09:1,2012-10-09T18:00:00Z,29.1015,-89.9782,1018.35,11111222 
WAVCIS,ioos:station:WAVCIS:CSI09:1,2012-10-09T19:00:00Z,29.1015,-89.9782,1017.41,11111222 
WAVCIS,ioos:station:WAVCIS:CSI09:1,2012-10-09T20:00:00Z,29.1015,-89.9782,1017.01,11111222 
WAVCIS,ioos:station:WAVCIS:CSI09:1,2012-10-09T21:00:00Z,29.1015,-89.9782,1016.55,11111222 
WAVCIS,ioos:station:WAVCIS:CSI09:1,2012-10-09T22:00:00Z,29.1015,-89.9782,1016.59,11111222 
WAVCIS,ioos:station:WAVCIS:CSI09:1,2012-10-09T23:00:00Z,29.1015,-89.9782,1016.54,11111222 
WAVCIS,ioos:station:WAVCIS:CSI09:1,2012-10-10T00:00:00Z,29.1015,-89.9782,1016.71,11111222 
WAVCIS,ioos:station:WAVCIS:CSI09:1,2012-10-10T01:00:00Z,29.1015,-89.9782,1016.84,11111222 
WAVCIS,ioos:station:WAVCIS:CSI09:1,2012-10-10T02:00:00Z,29.1015,-89.9782,1017.32,11111222 
WAVCIS,ioos:station:WAVCIS:CSI09:1,2012-10-10T03:00:00Z,29.1015,-89.9782,1017.71,11111222 
WAVCIS,ioos:station:WAVCIS:CSI09:1,2012-10-10T04:00:00Z,29.1015,-89.9782,1017.66,11111222 
WAVCIS,ioos:station:WAVCIS:CSI09:1,2012-10-10T05:00:00Z,29.1015,-89.9782,1017.38,11111222 
WAVCIS,ioos:station:WAVCIS:CSI09:1,2012-10-10T06:00:00Z,29.1015,-89.9782,1017.11,11111222 
WAVCIS,ioos:station:WAVCIS:CSI09:1,2012-10-10T07:00:00Z,29.1015,-89.9782,1017.14,11111222 
WAVCIS,ioos:station:WAVCIS:CSI09:1,2012-10-10T08:00:00Z,29.1015,-89.9782,1017.14,11111222 
WAVCIS,ioos:station:WAVCIS:CSI09:1,2012-10-10T09:00:00Z,29.1015,-89.9782,1017.44,11111222 
WAVCIS,ioos:station:WAVCIS:CSI09:1,2012-10-10T10:00:00Z,29.1015,-89.9782,1018.04,11111222 
WAVCIS,ioos:station:WAVCIS:CSI09:1,2012-10-10T11:00:00Z,29.1015,-89.9782,1018.85,11111222 
WAVCIS,ioos:station:WAVCIS:CSI09:1,2012-10-10T12:00:00Z,29.1015,-89.9782,1019.3,11111222 
WAVCIS,ioos:station:WAVCIS:CSI09:1,2012-10-10T13:00:00Z,29.1015,-89.9782,1019.79,11111222 
WAVCIS,ioos:station:WAVCIS:CSI09:1,2012-10-10T14:00:00Z,29.1015,-89.9782,1020.26,11111222 
WAVCIS,ioos:station:WAVCIS:CSI09:1,2012-10-10T15:00:00Z,29.1015,-89.9782,1020.63,11111222 
WAVCIS,ioos:station:WAVCIS:CSI09:1,2012-10-10T16:00:00Z,29.1015,-89.9782,1020.71,11111222 
WAVCIS,ioos:station:WAVCIS:CSI09:1,2012-10-10T17:00:00Z,29.1015,-89.9782,1020.53,11111222 
WAVCIS,ioos:station:WAVCIS:CSI09:1,2012-10-10T18:00:00Z,29.1015,-89.9782,1020.02,11111222 
WAVCIS,ioos:station:WAVCIS:CSI09:1,2012-10-10T19:00:00Z,29.1015,-89.9782,1019.02,11111222 
WAVCIS,ioos:station:WAVCIS:CSI09:1,2012-10-10T20:00:00Z,29.1015,-89.9782,1018.38,11111222 
WAVCIS,ioos:station:WAVCIS:CSI09:1,2012-10-10T21:00:00Z,29.1015,-89.9782,1018.12,11111222 
WAVCIS,ioos:station:WAVCIS:CSI09:1,2012-10-10T22:00:00Z,29.1015,-89.9782,1018.12,11111222 
WAVCIS,ioos:station:WAVCIS:CSI09:1,2012-10-10T23:00:00Z,29.1015,-89.9782,1018.49,11111222 
WAVCIS,ioos:station:WAVCIS:CSI09:1,2012-10-11T00:00:00Z,29.1015,-89.9782,1018.7,11111222 
WAVCIS,ioos:station:WAVCIS:CSI09:1,2012-10-11T01:00:00Z,29.1015,-89.9782,1019.34,11111222 
WAVCIS,ioos:station:WAVCIS:CSI09:1,2012-10-11T02:00:00Z,29.1015,-89.9782,1019.9,11111222 
WAVCIS,ioos:station:WAVCIS:CSI09:1,2012-10-11T03:00:00Z,29.1015,-89.9782,1020.25,11111222 
WAVCIS,ioos:station:WAVCIS:CSI09:1,2012-10-11T04:00:00Z,29.1015,-89.9782,1020.24,11111222 
WAVCIS,ioos:station:WAVCIS:CSI09:1,2012-10-11T05:00:00Z,29.1015,-89.9782,1020.18,11111222 
WAVCIS,ioos:station:WAVCIS:CSI09:1,2012-10-11T06:00:00Z,29.1015,-89.9782,1019.89,11111222 
WAVCIS,ioos:station:WAVCIS:CSI09:1,2012-10-11T07:00:00Z,29.1015,-89.9782,1019.98,11111222 
WAVCIS,ioos:station:WAVCIS:CSI09:1,2012-10-11T08:00:00Z,29.1015,-89.9782,1020.01,11111222 
WAVCIS,ioos:station:WAVCIS:CSI09:1,2012-10-11T09:00:00Z,29.1015,-89.9782,1019.74,11111222 
WAVCIS,ioos:station:WAVCIS:CSI09:1,2012-10-11T10:00:00Z,29.1015,-89.9782,1019.86,11111222 
WAVCIS,ioos:station:WAVCIS:CSI09:1,2012-10-11T11:00:00Z,29.1015,-89.9782,1020.21,11111222 
WAVCIS,ioos:station:WAVCIS:CSI09:1,2012-10-11T12:00:00Z,29.1015,-89.9782,1020.56,11111222 
WAVCIS,ioos:station:WAVCIS:CSI09:1,2012-10-11T13:00:00Z,29.1015,-89.9782,1021.0,11111222 
WAVCIS,ioos:station:WAVCIS:CSI09:1,2012-10-11T14:00:00Z,29.1015,-89.9782,1021.72,11111222 
WAVCIS,ioos:station:WAVCIS:CSI09:1,2012-10-11T15:00:00Z,29.1015,-89.9782,1022.35,11111222 
WAVCIS,ioos:station:WAVCIS:CSI09:1,2012-10-11T16:00:00Z,29.1015,-89.9782,1022.91,11111222 
WAVCIS,ioos:station:WAVCIS:CSI09:1,2012-10-11T17:00:00Z,29.1015,-89.9782,1022.6,11111222 
WAVCIS,ioos:station:WAVCIS:CSI09:1,2012-10-11T18:00:00Z,29.1015,-89.9782,1021.93,11111222 
WAVCIS,ioos:station:WAVCIS:CSI09:1,2012-10-11T19:00:00Z,29.1015,-89.9782,1021.15,11111222 
WAVCIS,ioos:station:WAVCIS:CSI09:1,2012-10-11T20:00:00Z,29.1015,-89.9782,1020.98,11111222 
WAVCIS,ioos:station:WAVCIS:CSI09:1,2012-10-11T21:00:00Z,29.1015,-89.9782,1020.74,11111222 
WAVCIS,ioos:station:WAVCIS:CSI09:1,2012-10-11T22:00:00Z,29.1015,-89.9782,1020.67,11111222 